PLCH

Details ICAO PLCH (CXI)
Name Cassidy International
Region Kiribati (Line Islands)
Timezone Pacific/Kiritimati (UTC+14.0)
Plans Departing 49
Arriving 55
Stats Elevation 5 ft / 2 m (AMSL)
Location 1.986270° -157.349914°
Runways 1
Magnetic Variation 9.043° E
Sunrise 2018-05-25 16:21:12 UTC / 2018-05-26 06:21:12 Local
Sunset 2018-05-26 04:34:27 UTC / 2018-05-26 18:34:27 Local
Advertisement - Login to hide

Runways

ID Width Length Bearing (true) Bearing (mag) Surface Threshold Offset Overrun Length
08 98 ft / 30 m 6,899 ft / 2,103 m 90.00° 80.96° Asphalt 0 ft / 0 m 0 ft / 0 m
26 98 ft / 30 m 6,899 ft / 2,103 m 270.00° 260.96° Asphalt 0 ft / 0 m 0 ft / 0 m

Map

Weather


0- 5 10 15 20 25 30 35+ Temperature / ° C

Clouds and Precipitation
Forecast for 2018-05-26 00:00 UTC. Updated 6 hours ago

Ground ~20,000 ft ~40,000 ft Winds

METAR

PLCH 260500Z 11006KT 9999 FEW020 28/24 Q1010

TAF

TAF PLCH 252332Z 2600/2624 14008 KT 9999 FEW020

Frequencies

Tower 118.10 MHz AFIS
Warning: Do not use this data for real-world aviation or navigation. No guarantee of current accuracy is given.